This is the latest recevied weather packets stored in our database for station/object KC4KQE. If no packets are shown the sender has not sent any weather packets the latest 10 day(s).
| Time | Temp. | Humidity | Pressure | Rain* | Wind** | Luminosity | Snow |
|---|---|---|---|---|---|---|---|
| 1777647557 | 21.67° C | 38% | 1012.7 hPa | 0 mm | - | 369 W/m² | - |
| 1777647257 | 21.67° C | 38% | 1012.6 hPa | 0 mm | - | 355 W/m² | - |
| 1777646957 | 21.67° C | 39% | 1012.6 hPa | 0 mm | - | 336 W/m² | - |
| 1777646657 | 21.67° C | 39% | 1012.6 hPa | 0 mm | - | 322 W/m² | - |
| 1777646357 | 21.67° C | 39% | 1012.5 hPa | 0 mm | - | 306 W/m² | - |
| 1777646058 | 21.67° C | 40% | 1012.6 hPa | 0 mm | - | 287 W/m² | - |
| 1777645757 | 21.11° C | 41% | 1012.5 hPa | 0 mm | - | 271 W/m² | - |
| 1777645457 | 21.11° C | 42% | 1012.5 hPa | 0 mm | - | 253 W/m² | - |
| 1777645157 | 20.56° C | 43% | 1012.5 hPa | 0 mm | - | 232 W/m² | - |
| 1777644857 | 20.56° C | 43% | 1012.4 hPa | 0 mm | - | 220 W/m² | - |
| 1777644557 | 20.56° C | 43% | 1012.4 hPa | 0 mm | - | 204 W/m² | - |
| 1777644257 | 20° C | 44% | 1012.3 hPa | 0 mm | - | 186 W/m² | - |
| 1777643958 | 20° C | 45% | 1012.3 hPa | 0 mm | - | 172 W/m² | - |
| 1777643657 | 19.44° C | 44% | 1012.3 hPa | 0 mm | - | 155 W/m² | - |
| 1777643357 | 19.44° C | 44% | 1012.2 hPa | 0 mm | - | 141 W/m² | - |
| 1777643057 | 18.89° C | 44% | 1012.2 hPa | 0 mm | - | 125 W/m² | - |
| 1777642757 | 18.89° C | 44% | 1012.2 hPa | 0 mm | - | 105 W/m² | - |
| 1777642457 | 18.89° C | 45% | 1012.1 hPa | 0 mm | - | 90 W/m² | - |
| 1777642157 | 18.33° C | 46% | 1012 hPa | 0 mm | - | 72 W/m² | - |
| 1777641857 | 17.78° C | 47% | 1011.9 hPa | 0 mm | - | 58 W/m² | - |
| 1777641557 | 17.78° C | 47% | 1011.9 hPa | 0 mm | - | 25 W/m² | - |
| 1777641257 | 17.22° C | 46% | 1011.9 hPa | 0 mm | - | 23 W/m² | - |
| 1777640957 | 17.22° C | 46% | 1011.8 hPa | 0 mm | - | 19 W/m² | - |
| 1777640657 | 17.78° C | 46% | 1011.7 hPa | 0 mm | - | 18 W/m² | - |
| 1777640357 | 17.78° C | 45% | 1011.6 hPa | 0 mm | - | 14 W/m² | - |
* Rain latest hour (hover to see other rain measurements)
** Current wind speed in m/s (hover to see current wind gust speed)